When you browse on this site, cookies collect data to enhance your experience and personalize the content and advertising you see.
Visit our Privacy Policy to learn more. By continuing to use the site, you agree to this use of cookies and data.
  • In Spain
  • List of Countries
  • For 7 days
  • Water Temperature
  • Weather Map
  • Weather Widgets
  • user-avatar
    Login

    Hourly Weather Bliznaki

    Today, 24 August, Saturday

    Time Temperature Precipitation Wind Pressure Humidity
    00:00 +13°C° 0 mm 1 mps 749 mmHg 87%
    01:00 +13°C° 0 mm 1 mps 749 mmHg 87%
    02:00 +12°C° 0 mm 1 mps 749 mmHg 88%
    03:00 +12°C° 0 mm 1 mps 749 mmHg 89%
    04:00 +12°C° 0 mm 1 mps 749 mmHg 90%
    05:00 +12°C° 0 mm 1 mps 749 mmHg 91%
    06:00 +14°C° 0 mm 2 mps 749 mmHg 86%
    07:00 +15°C° 0 mm 2 mps 749 mmHg 81%
    08:00 +17°C° 0 mm 2 mps 749 mmHg 76%
    09:00 +18°C° 0 mm 3 mps 749 mmHg 72%
    10:00 +20°C° 0 mm 3 mps 749 mmHg 68%
    11:00 +21°C° 0 mm 3 mps 749 mmHg 63%
    12:00 +22°C° 0 mm 4 mps 748 mmHg 62%
    13:00 +22°C° 0 mm 4 mps 748 mmHg 61%
    14:00 +23°C° 0 mm 4 mps 748 mmHg 60%
    15:00 +22°C° 0 mm 3 mps 748 mmHg 64%
    16:00 +22°C° 0 mm 3 mps 747 mmHg 68%
    17:00 +23°C° 0 mm 2 mps 747 mmHg 72%
    18:00 +20°C° 0 mm 2 mps 747 mmHg 77%
    19:00 +18°C° 0 mm 2 mps 747 mmHg 82%
    20:00 +17°C° 0 mm 2 mps 747 mmHg 87%
    21:00 +16°C° 0 mm 2 mps 747 mmHg 90%
    22:00 +15°C° 0 mm 2 mps 747 mmHg 92%
    23:00 +15°C° 0 mm 2 mps 747 mmHg 94%

    Tomorrow, 25 August, Sunday

    Time Temperature Precipitation Wind Pressure Humidity
    00:00 +14°C° 0 mm 2 mps 747 mmHg 94%
    01:00 +14°C° 0 mm 1 mps 748 mmHg 94%
    02:00 +14°C° 0 mm 1 mps 748 mmHg 94%
    03:00 +13°C° 0 mm 1 mps 748 mmHg 94%
    04:00 +13°C° 0 mm 1 mps 748 mmHg 94%
    05:00 +12°C° 0 mm 2 mps 748 mmHg 95%
    06:00 +14°C° 0 mm 2 mps 749 mmHg 89%
    07:00 +15°C° 0 mm 2 mps 749 mmHg 84%
    08:00 +17°C° 0 mm 2 mps 749 mmHg 79%
    09:00 +18°C° 0 mm 2 mps 749 mmHg 73%
    10:00 +19°C° 0 mm 2 mps 749 mmHg 66%
    11:00 +21°C° 0 mm 2 mps 750 mmHg 59%
    12:00 +21°C° 0 mm 2 mps 750 mmHg 58%
    13:00 +21°C° 0 mm 2 mps 750 mmHg 56%
    14:00 +23°C° 0 mm 2 mps 750 mmHg 54%
    15:00 +21°C° 0 mm 2 mps 749 mmHg 59%
    16:00 +21°C° 0 mm 2 mps 749 mmHg 63%
    17:00 +21°C° 0 mm 1 mps 749 mmHg 68%
    18:00 +19°C° 0 mm 1 mps 749 mmHg 73%
    19:00 +16°C° 0 mm 1 mps 750 mmHg 78%
    20:00 +14°C° 0 mm 1 mps 750 mmHg 83%
    21:00 +14°C° 0 mm 1 mps 750 mmHg 85%
    22:00 +13°C° 0 mm 1 mps 750 mmHg 88%
    23:00 +13°C° 0 mm 1 mps 750 mmHg 90%

    Day after tomorrow, 26 August, Monday

    Time Temperature Precipitation Wind Pressure Humidity
    00:00 +13°C° 0 mm 1 mps 750 mmHg 91%
    01:00 +12°C° 0 mm 1 mps 750 mmHg 92%
    02:00 +12°C° 0 mm 1 mps 750 mmHg 92%
    03:00 +12°C° 0 mm 1 mps 750 mmHg 93%
    04:00 +11°C° 0 mm 1 mps 750 mmHg 93%
    05:00 +11°C° 0 mm 1 mps 750 mmHg 93%
    06:00 +12°C° 0 mm 0 mps 750 mmHg 88%
    07:00 +14°C° 0 mm 0 mps 750 mmHg 82%
    08:00 +16°C° 0 mm 0 mps 750 mmHg 77%
    09:00 +19°C° 0 mm 1 mps 750 mmHg 71%
    10:00 +21°C° 0 mm 1 mps 750 mmHg 66%
    11:00 +22°C° 0 mm 1 mps 750 mmHg 61%
    12:00 +22°C° 0 mm 1 mps 749 mmHg 59%
    13:00 +23°C° 0 mm 1 mps 749 mmHg 57%
    14:00 +23°C° 0 mm 2 mps 749 mmHg 56%
    15:00 +23°C° 0 mm 2 mps 748 mmHg 60%
    16:00 +22°C° 0 mm 1 mps 748 mmHg 65%
    17:00 +22°C° 0 mm 1 mps 748 mmHg 70%
    18:00 +20°C° 0 mm 1 mps 747 mmHg 74%
    19:00 +18°C° 0 mm 1 mps 747 mmHg 79%
    20:00 +15°C° 0 mm 1 mps 747 mmHg 84%
    21:00 +15°C° 0 mm 1 mps 747 mmHg 84%
    22:00 +14°C° 0 mm 1 mps 747 mmHg 85%
    23:00 +14°C° 0 mm 1 mps 747 mmHg 85%

    27 August, Tuesday

    Time Temperature Precipitation Wind Pressure Humidity
    00:00 +14°C° 0 mm 2 mps 747 mmHg 87%
    01:00 +14°C° 0 mm 2 mps 746 mmHg 88%
    02:00 +14°C° 0 mm 2 mps 746 mmHg 90%
    03:00 +14°C° 0 mm 2 mps 746 mmHg 92%
    04:00 +14°C° 0 mm 2 mps 746 mmHg 94%
    05:00 +14°C° 0 mm 2 mps 746 mmHg 96%
    06:00 +15°C° 0 mm 2 mps 746 mmHg 92%
    07:00 +16°C° 0 mm 3 mps 746 mmHg 88%
    08:00 +18°C° 0 mm 3 mps 745 mmHg 85%
    09:00 +19°C° 0 mm 4 mps 745 mmHg 78%
    10:00 +20°C° 0 mm 4 mps 745 mmHg 72%
    11:00 +22°C° 0 mm 4 mps 745 mmHg 66%
    12:00 +22°C° 0 mm 5 mps 745 mmHg 65%
    13:00 +22°C° 0 mm 5 mps 745 mmHg 64%
    14:00 +22°C° 0 mm 5 mps 745 mmHg 63%
    15:00 +22°C° 0 mm 4 mps 745 mmHg 64%
    16:00 +21°C° 0 mm 4 mps 745 mmHg 66%
    17:00 +20°C° 0 mm 3 mps 745 mmHg 67%
    18:00 +18°C° 0 mm 3 mps 745 mmHg 70%
    19:00 +16°C° 0 mm 3 mps 746 mmHg 73%
    20:00 +14°C° 0 mm 3 mps 746 mmHg 76%
    21:00 +13°C° 0 mm 3 mps 746 mmHg 80%
    22:00 +12°C° 0 mm 3 mps 747 mmHg 84%
    23:00 +12°C° 0 mm 2 mps 747 mmHg 87%

    28 August, Wednesday

    Time Temperature Precipitation Wind Pressure Humidity
    00:00 +12°C° 0 mm 2 mps 747 mmHg 90%
    01:00 +10°C° 0 mm 2 mps 747 mmHg 92%
    02:00 +10°C° 0 mm 2 mps 747 mmHg 95%
    03:00 +9°C° 0 mm 2 mps 748 mmHg 95%
    04:00 +10°C° 0 mm 1 mps 748 mmHg 94%
    05:00 +9°C° 0 mm 1 mps 748 mmHg 94%
    06:00 +11°C° 0 mm 1 mps 748 mmHg 86%
    07:00 +12°C° 0 mm 2 mps 749 mmHg 79%
    08:00 +14°C° 0 mm 2 mps 749 mmHg 71%
    09:00 +15°C° 0 mm 2 mps 749 mmHg 65%
    10:00 +16°C° 0 mm 3 mps 749 mmHg 58%
    11:00 +17°C° 0 mm 3 mps 749 mmHg 52%
    12:00 +18°C° 0 mm 3 mps 749 mmHg 51%
    13:00 +18°C° 0 mm 3 mps 749 mmHg 50%
    14:00 +18°C° 0 mm 3 mps 748 mmHg 49%
    15:00 +18°C° 0 mm 3 mps 748 mmHg 53%
    16:00 +18°C° 0 mm 2 mps 748 mmHg 58%
    17:00 +18°C° 0 mm 2 mps 748 mmHg 63%
    18:00 +16°C° 0 mm 2 mps 748 mmHg 66%
    19:00 +14°C° 0 mm 2 mps 748 mmHg 70%
    20:00 +12°C° 0 mm 1 mps 748 mmHg 73%
    21:00 +11°C° 0 mm 1 mps 748 mmHg 73%
    22:00 +10°C° 0 mm 1 mps 749 mmHg 74%
    23:00 +10°C° 0 mm 1 mps 749 mmHg 74%

    29 August, Thursday

    Time Temperature Precipitation Wind Pressure Humidity
    00:00 +9°C° 0 mm 1 mps 749 mmHg 74%
    01:00 +8°C° 0 mm 1 mps 749 mmHg 74%
    02:00 +8°C° 0 mm 1 mps 749 mmHg 75%
    03:00 +7°C° 0 mm 1 mps 749 mmHg 75%
    04:00 +7°C° 0 mm 1 mps 749 mmHg 75%
    05:00 +6°C° 0 mm 0 mps 749 mmHg 75%
    06:00 +8°C° 0 mm 0 mps 749 mmHg 70%
    07:00 +11°C° 0 mm 1 mps 749 mmHg 65%
    08:00 +13°C° 0 mm 1 mps 749 mmHg 60%
    09:00 +14°C° 0 mm 1 mps 749 mmHg 56%
    10:00 +16°C° 0 mm 1 mps 749 mmHg 52%
    11:00 +19°C° 0 mm 1 mps 749 mmHg 47%
    12:00 +19°C° 0 mm 1 mps 749 mmHg 48%
    13:00 +20°C° 0 mm 1 mps 748 mmHg 49%
    14:00 +21°C° 0 mm 1 mps 748 mmHg 50%
    15:00 +20°C° 0 mm 1 mps 748 mmHg 55%
    16:00 +20°C° 0 mm 1 mps 748 mmHg 61%
    17:00 +20°C° 0 mm 1 mps 748 mmHg 66%
    18:00 +18°C° 0 mm 1 mps 748 mmHg 72%
    19:00 +15°C° 0 mm 1 mps 748 mmHg 78%
    20:00 +13°C° 0 mm 1 mps 748 mmHg 84%
    21:00 +13°C° 0 mm 1 mps 748 mmHg 85%
    22:00 +12°C° 0 mm 1 mps 748 mmHg 87%
    23:00 +12°C° 0 mm 1 mps 748 mmHg 89%
    Show more